This demonstration page uses our WeatherBlox Daily Observations layout. Learn more.

Left ArrowRight Arrow

Hourly Observations for May 7, 2015

Temp ( °F °C ) Dew Point ( °F °C ) Humidity (%) Winds ( mph kmh ) Pressure ( in mb ) Visibility ( mi km ) Precip ( " mm )
12:16 am 00:16 Clear 64 18 45 7 49 49 SE 3 6 30.12 1020 10 16.0934 N/A
12:36 am 00:36 Clear 66 19 43 6 43 43 SE 3 6 30.12 1020 10 16.0934 N/A
12:55 am 00:55 Clear 64 18 45 7 49 49 SE 5 7 30.12 1020 10 16.0934 N/A
1:16 am 01:16 Clear 66 19 43 6 43 43 SE 3 6 30.12 1020 10 16.0934 N/A
1:36 am 01:36 Clear 64 18 43 6 46 46 SE 5 7 30.12 1020 10 16.0934 N/A
1:56 am 01:56 Clear 64 18 45 7 49 49 SE 5 7 30.12 1020 10 16.0934 N/A
2:16 am 02:16 Clear 64 18 43 6 46 46 SE 3 6 30.12 1020 10 16.0934 N/A
2:35 am 02:35 Clear 64 18 43 6 46 46 SE 5 7 30.12 1020 10 16.0934 N/A
2:56 am 02:56 Clear 66 19 43 6 43 43 SE 5 7 30.12 1020 10 16.0934 N/A
3:16 am 03:16 Clear 63 17 45 7 52 52 SE 3 6 30.12 1020 10 16.0934 N/A
3:36 am 03:36 Clear 63 17 45 7 52 52 ESE 3 6 30.12 1020 10 16.0934 N/A
3:56 am 03:56 Clear 64 18 45 7 49 49 ESE 3 6 30.12 1020 10 16.0934 N/A
4:15 am 04:15 Clear 63 17 45 7 52 52 ESE 5 7 30.12 1020 10 16.0934 N/A
4:36 am 04:36 Clear 63 17 46 8 56 56 ESE 3 6 30.12 1020 10 16.0934 N/A
4:56 am 04:56 Clear 63 17 46 8 56 56 Calm 30.09 1019 10 16.0934 N/A
5:15 am 05:15 Clear 63 17 46 8 56 56 ESE 5 7 30.12 1020 10 16.0934 N/A
5:36 am 05:36 Clear 63 17 48 9 59 59 SE 3 6 30.12 1020 10 16.0934 N/A
5:56 am 05:56 Clear 63 17 48 9 59 59 SE 5 7 30.12 1020 10 16.0934 N/A
6:16 am 06:16 Clear 63 17 48 9 59 59 ESE 3 6 30.09 1019 10 16.0934 N/A
6:36 am 06:36 Clear 63 17 48 9 59 59 ESE 5 7 30.09 1019 10 16.0934 N/A
6:55 am 06:55 Sunny 61 16 48 9 63 63 SE 5 7 30.12 1020 10 16.0934 N/A
7:16 am 07:16 Sunny 63 17 48 9 59 59 SE 3 6 30.12 1020 10 16.0934 N/A
7:36 am 07:36 Sunny 64 18 50 10 60 60 SE 5 7 30.12 1020 10 16.0934 N/A
7:56 am 07:56 Sunny 66 19 50 10 56 56 SSE 3 6 30.12 1020 10 16.0934 N/A
8:16 am 08:16 Sunny 68 20 50 10 53 53 SE 6 9 30.12 1020 10 16.0934 N/A
8:35 am 08:35 Sunny 68 20 48 9 49 49 SE 6 9 30.12 1020 10 16.0934 N/A
8:56 am 08:56 Sunny 72 22 48 9 44 44 SSE 6 9 30.09 1019 10 16.0934 N/A
9:16 am 09:16 Sunny 73 23 46 8 38 38 SSE 6 9 30.09 1019 10 16.0934 N/A
9:36 am 09:36 Sunny 75 24 46 8 36 36 SSE 5 7 30.09 1019 10 16.0934 N/A
9:56 am 09:56 Sunny 77 25 45 7 32 32 S 6 9 30.09 1019 10 16.0934 N/A
10:16 am 10:16 Sunny 77 25 43 6 30 30 SSW 6 9 30.09 1019 10 16.0934 N/A
10:36 am 10:36 Sunny 79 26 41 5 26 26 SW 5 7 30.09 1019 10 16.0934 N/A
10:56 am 10:56 Sunny 81 27 39 4 23 23 SSW 7 11 30.09 1019 10 16.0934 N/A
11:16 am 11:16 Sunny 82 28 39 4 21 21 SSW 9 15 30.09 1019 10 16.0934 N/A
11:36 am 11:36 Sunny 82 28 36 2 19 19 SSW 8 13 30.09 1019 10 16.0934 N/A
11:56 am 11:56 Sunny 82 28 34 1 17 17 S 7 11 30.09 1019 10 16.0934 N/A
12:16 pm 12:16 Sunny 84 29 34 1 16 16 SSW 10 17 30.09 1019 10 16.0934 N/A
12:36 pm 12:36 Sunny 84 29 32 0 15 15 SSW 12 19 30.09 1019 10 16.0934 N/A
12:56 pm 12:56 Sunny 86 30 32 0 14 14 S 10 17 30.09 1019 10 16.0934 N/A
1:16 pm 13:16 Sunny 86 30 34 1 15 15 S 9 15 30.06 1018 10 16.0934 N/A
1:36 pm 13:36 Sunny 86 30 32 0 14 14 S 7 11 30.06 1018 10 16.0934 N/A
1:56 pm 13:56 Sunny 86 30 32 0 14 14 SSW 6 9 30.06 1018 10 16.0934 N/A
2:15 pm 14:15 Sunny 86 30 34 1 15 15 W 7 11 30.06 1018 10 16.0934 N/A
2:36 pm 14:36 Sunny 88 31 30 -1 13 13 SSW 8 13 30.06 1018 10 16.0934 N/A
2:56 pm 14:56 Sunny 88 31 28 -2 12 12 S 12 19 30.03 1017 10 16.0934 N/A
3:16 pm 15:16 Sunny 88 31 25 -4 10 10 SW 9 15 30.03 1017 10 16.0934 N/A
3:36 pm 15:36 Sunny 88 31 28 -2 12 12 SW 16 26 30.03 1017 10 16.0934 N/A
3:56 pm 15:56 Sunny 88 31 23 -5 9 9 SSW 12 19 30.03 1017 10 16.0934 N/A
4:16 pm 16:16 Sunny 90 32 23 -5 9 9 SSW 13 20 29.97 1015 10 16.0934 N/A
4:36 pm 16:36 Sunny 88 31 27 -3 11 11 SW 7 11 29.97 1015 10 16.0934 N/A
4:56 pm 16:56 Sunny 86 30 25 -4 11 11 SSW 8 13 30 1016 10 16.0934 N/A
5:16 pm 17:16 Sunny 88 31 25 -4 10 10 WSW 14 22 29.97 1015 10 16.0934 N/A
5:36 pm 17:36 Sunny 86 30 28 -2 12 12 SSW 8 13 30 1016 10 16.0934 N/A
5:56 pm 17:56 Sunny 84 29 30 -1 14 14 SSW 9 15 30 1016 10 16.0934 N/A
6:16 pm 18:16 Sunny 86 30 27 -3 11 11 S 8 13 29.97 1015 10 16.0934 N/A
6:36 pm 18:36 Sunny 86 30 27 -3 11 11 SSW 10 17 29.97 1015 10 16.0934 N/A
6:56 pm 18:56 Sunny 84 29 30 -1 14 14 SSW 12 19 29.97 1015 10 16.0934 N/A
7:16 pm 19:16 Sunny 84 29 32 0 15 15 SW 8 13 29.97 1015 10 16.0934 N/A
7:36 pm 19:36 Sunny 82 28 32 0 16 16 SW 10 17 29.97 1015 10 16.0934 N/A
7:55 pm 19:55 Sunny 82 28 34 1 17 17 SW 8 13 29.97 1015 10 16.0934 N/A
8:16 pm 20:16 Sunny 81 27 34 1 18 18 SW 8 13 30 1016 10 16.0934 N/A
8:36 pm 20:36 Sunny 81 27 36 2 20 20 SW 7 11 30 1016 10 16.0934 N/A
8:56 pm 20:56 Clear 77 25 36 2 22 22 SSW 5 7 30 1016 10 16.0934 N/A
9:16 pm 21:16 Clear 75 24 37 3 25 25 SSW 3 6 30 1016 10 16.0934 N/A
9:36 pm 21:36 Clear 75 24 37 3 25 25 SSW 3 6 30 1016 10 16.0934 N/A
9:56 pm 21:56 Clear 72 22 41 5 33 33 S 3 6 30 1016 10 16.0934 N/A
10:16 pm 22:16 Clear 73 23 41 5 31 31 S 3 6 30 1016 10 16.0934 N/A
10:36 pm 22:36 Clear 70 21 45 7 40 40 S 3 6 30 1016 10 16.0934 N/A
10:56 pm 22:56 Clear 68 20 45 7 43 43 S 3 6 30.03 1017 10 16.0934 N/A
11:15 pm 23:15 Clear 70 21 45 7 40 40 S 3 6 30 1016 10 16.0934 N/A
11:36 pm 23:36 Clear 70 21 43 6 38 38 S 3 6 30 1016 10 16.0934 N/A
11:56 pm 23:56 Clear 70 21 45 7 40 40 S 5 7 30 1016 10 16.0934 N/A

Powered by AerisWeather